| time (UTC) | temp C | wind direction | speed KPH | gust KPH | rain 1hr cm | rain 24hr cm | rain mn cm | humidity % | barometer mb |
| 20260506080215 | 18 | 321 | 1.6 | 4.8 | 0.00 | 0.00 | 0.00 | 53 | 1006.4 |
| 20260506071709 | 18 | 351 | 0.0 | 1.6 | 0.00 | 0.00 | 0.00 | 51 | 1006.4 |
| 20260506071207 | 18 | 351 | 0.0 | 1.6 | 0.00 | 0.00 | 0.00 | 51 | 1006.4 |
| 20260506070703 | 18 | 351 | 0.0 | 1.6 | 0.00 | 0.00 | 0.00 | 51 | 1006.4 |
| 20260506070201 | 18 | 329 | 1.6 | 4.8 | 0.00 | 0.00 | 0.00 | 50 | 1006.9 |
| 20260506061656 | 17 | 359 | 0.0 | 0.0 | 0.00 | 0.00 | 0.00 | 53 | 1006.9 |
| 20260506061154 | 17 | 359 | 0.0 | 0.0 | 0.00 | 0.00 | 0.00 | 53 | 1006.9 |
| 20260506060652 | 17 | 359 | 0.0 | 0.0 | 0.00 | 0.00 | 0.00 | 53 | 1006.9 |
| 20260506060149 | 17 | 342 | 0.0 | 0.0 | 0.00 | 0.00 | 0.00 | 53 | 1007.2 |
| 20260506050139 | 13 | 12 | 0.0 | 1.6 | 0.00 | 0.00 | 0.00 | 77 | 1007.6 |
| 20260506045132 | 13 | 12 | 0.0 | 1.6 | 0.00 | 0.00 | 0.00 | 77 | 1007.6 |
| 20260506043140 | 13 | 27 | 0.0 | 1.6 | 0.00 | 0.00 | 0.00 | 78 | 1007.7 |
| 20260506042639 | 13 | 27 | 0.0 | 1.6 | 0.00 | 0.00 | 0.00 | 78 | 1007.7 |
| 20260506042137 | 13 | 27 | 0.0 | 1.6 | 0.00 | 0.00 | 0.00 | 78 | 1007.7 |
| 20260506041635 | 13 | 48 | 0.0 | 0.0 | 0.00 | 0.00 | 0.00 | 77 | 1007.6 |
| 20260506041131 | 13 | 48 | 0.0 | 0.0 | 0.00 | 0.00 | 0.00 | 77 | 1007.6 |
| 20260506040629 | 14 | 12 | 0.0 | 0.0 | 0.00 | 0.00 | 0.00 | 77 | 1007.8 |
| 20260506040126 | 14 | 12 | 0.0 | 0.0 | 0.00 | 0.00 | 0.00 | 77 | 1007.7 |
| 20260506035623 | 14 | 12 | 0.0 | 0.0 | 0.00 | 0.00 | 0.00 | 77 | 1007.7 |
| 20260506035119 | 14 | 12 | 0.0 | 0.0 | 0.00 | 0.00 | 0.00 | 77 | 1007.7 |
| 20260506030114 | 15 | 5 | 0.0 | 0.0 | 0.00 | 0.00 | 0.00 | 73 | 1007.8 |
| 20260506025611 | 15 | 5 | 0.0 | 0.0 | 0.00 | 0.00 | 0.00 | 73 | 1007.8 |
| 20260506025107 | 15 | 5 | 0.0 | 0.0 | 0.00 | 0.00 | 0.00 | 73 | 1007.8 |
| 20260506021107 | 16 | 355 | 0.0 | 0.0 | 0.00 | 0.00 | 0.00 | 69 | 1007.8 |
| 20260506020604 | 16 | 355 | 0.0 | 0.0 | 0.00 | 0.00 | 0.00 | 69 | 1007.8 |
| 20260506015559 | 17 | 355 | 0.0 | 0.0 | 0.00 | 0.00 | 0.00 | 66 | 1007.7 |
| 20260506015056 | 17 | 355 | 0.0 | 0.0 | 0.00 | 0.00 | 0.00 | 66 | 1007.7 |
| 20260506011054 | 20 | 346 | 0.0 | 1.6 | 0.00 | 0.00 | 0.00 | 56 | 1007.3 |
| 20260506010554 | 20 | 346 | 0.0 | 1.6 | 0.00 | 0.00 | 0.00 | 56 | 1007.3 |
| 20260506010050 | 20 | 346 | 0.0 | 1.6 | 0.00 | 0.00 | 0.00 | 56 | 1007.3 |
| 20260506005547 | 20 | 353 | 0.0 | 0.0 | 0.00 | 0.00 | 0.00 | 54 | 1007.3 |
| 20260506005042 | 20 | 349 | 0.0 | 0.0 | 0.00 | 0.00 | 0.00 | 53 | 1007.1 |
| 20260506004049 | 20 | 354 | 0.0 | 0.0 | 0.00 | 0.00 | 0.00 | 50 | 1007.1 |
| 20260506003545 | 20 | 354 | 0.0 | 0.0 | 0.00 | 0.00 | 0.00 | 50 | 1007.1 |
| 20260506003041 | 20 | 354 | 0.0 | 0.0 | 0.00 | 0.00 | 0.00 | 50 | 1007.1 |
| 20260506001044 | 22 | 272 | 0.0 | 1.6 | 0.00 | 0.00 | 0.00 | 45 | 1006.7 |
| 20260506000542 | 22 | 272 | 0.0 | 1.6 | 0.00 | 0.00 | 0.00 | 45 | 1006.7 |
| 20260506000039 | 22 | 272 | 0.0 | 1.6 | 0.00 | 0.00 | 0.00 | 45 | 1006.7 |
| 20260505235537 | 23 | 323 | 0.0 | 0.0 | 0.00 | 0.00 | 0.00 | 44 | 1006.6 |
| 20260505235033 | 23 | 323 | 0.0 | 0.0 | 0.00 | 0.00 | 0.00 | 44 | 1006.6 |
| 20260505231036 | 25 | 332 | 0.0 | 1.6 | 0.00 | 0.00 | 0.00 | 39 | 1006.1 |
| 20260505230533 | 25 | 332 | 0.0 | 1.6 | 0.00 | 0.00 | 0.00 | 39 | 1006.1 |
| 20260505230029 | 25 | 332 | 0.0 | 1.6 | 0.00 | 0.00 | 0.00 | 39 | 1006.1 |
| 20260505225526 | 25 | 117 | 1.6 | 9.7 | 0.00 | 0.00 | 0.00 | 38 | 1006.3 |
| 20260505225022 | 25 | 117 | 1.6 | 9.7 | 0.00 | 0.00 | 0.00 | 38 | 1006.3 |
| 20260505224022 | 25 | 253 | 1.6 | 3.2 | 0.00 | 0.00 | 0.00 | 38 | 1006.0 |
| 20260505223519 | 25 | 253 | 1.6 | 3.2 | 0.00 | 0.00 | 0.00 | 38 | 1006.0 |
| 20260505223015 | 25 | 253 | 1.6 | 3.2 | 0.00 | 0.00 | 0.00 | 38 | 1006.0 |
| 20260505220014 | 25 | 81 | 1.6 | 9.7 | 0.00 | 0.00 | 0.00 | 36 | 1005.7 |
| 20260505215512 | 25 | 81 | 1.6 | 9.7 | 0.00 | 0.00 | 0.00 | 36 | 1005.7 |
| 20260505215009 | 25 | 81 | 1.6 | 9.7 | 0.00 | 0.00 | 0.00 | 36 | 1005.7 |
| 20260505210002 | 26 | 224 | 3.2 | 11.3 | 0.00 | 0.00 | 0.00 | 35 | 1005.5 |
| 20260505205500 | 26 | 224 | 3.2 | 11.3 | 0.00 | 0.00 | 0.00 | 35 | 1005.5 |
| 20260505204956 | 26 | 224 | 3.2 | 11.3 | 0.00 | 0.00 | 0.00 | 35 | 1005.5 |
| 20260505203002 | 26 | 270 | 4.8 | 12.9 | 0.00 | 0.00 | 0.00 | 35 | 1005.4 |
| 20260505202459 | 26 | 270 | 4.8 | 12.9 | 0.00 | 0.00 | 0.00 | 35 | 1005.4 |
| 20260505201954 | 26 | 270 | 4.8 | 12.9 | 0.00 | 0.00 | 0.00 | 35 | 1005.4 |
| 20260505201451 | 26 | 236 | 3.2 | 12.9 | 0.00 | 0.00 | 0.00 | 34 | 1005.4 |
| 20260505195948 | 27 | 250 | 3.2 | 12.9 | 0.00 | 0.00 | 0.00 | 34 | 1005.4 |
| 20260505195445 | 27 | 250 | 3.2 | 12.9 | 0.00 | 0.00 | 0.00 | 34 | 1005.4 |
| 20260505194942 | 27 | 250 | 3.2 | 12.9 | 0.00 | 0.00 | 0.00 | 34 | 1005.4 |
| 20260505185940 | 28 | 198 | 4.8 | 9.7 | 0.00 | 0.00 | 0.00 | 34 | 1006.4 |
| 20260505185438 | 28 | 198 | 4.8 | 9.7 | 0.00 | 0.00 | 0.00 | 34 | 1006.4 |
| 20260505184934 | 28 | 198 | 4.8 | 9.7 | 0.00 | 0.00 | 0.00 | 34 | 1006.4 |
| 20260505175925 | 27 | 192 | 1.6 | 11.3 | 0.00 | 0.00 | 0.00 | 37 | 1007.1 |
| 20260505175421 | 27 | 192 | 1.6 | 11.3 | 0.00 | 0.00 | 0.00 | 37 | 1007.1 |
| 20260505174918 | 27 | 192 | 1.6 | 11.3 | 0.00 | 0.00 | 0.00 | 37 | 1007.1 |
| 20260505171430 | 27 | 95 | 1.6 | 9.7 | 0.00 | 0.00 | 0.00 | 38 | 1007.2 |
| 20260505170926 | 27 | 95 | 1.6 | 9.7 | 0.00 | 0.00 | 0.00 | 38 | 1007.2 |
| 20260505170423 | 27 | 95 | 1.6 | 9.7 | 0.00 | 0.00 | 0.00 | 38 | 1007.2 |
| 20260505165918 | 26 | 347 | 1.6 | 9.7 | 0.00 | 0.00 | 0.00 | 39 | 1007.7 |
| 20260505165414 | 26 | 347 | 1.6 | 9.7 | 0.00 | 0.00 | 0.00 | 39 | 1007.7 |
| 20260505164909 | 26 | 347 | 1.6 | 9.7 | 0.00 | 0.00 | 0.00 | 39 | 1007.7 |
| 20260505161409 | 27 | 254 | 3.2 | 4.8 | 0.00 | 0.00 | 0.00 | 39 | 1008.1 |
| 20260505160906 | 27 | 254 | 3.2 | 4.8 | 0.00 | 0.00 | 0.00 | 39 | 1008.1 |
| 20260505160404 | 27 | 254 | 3.2 | 4.8 | 0.00 | 0.00 | 0.00 | 39 | 1008.1 |
| 20260505151358 | 25 | 62 | 3.2 | 9.7 | 0.00 | 0.00 | 0.00 | 42 | 1008.2 |
| 20260505150855 | 25 | 62 | 3.2 | 9.7 | 0.00 | 0.00 | 0.00 | 42 | 1008.2 |
| 20260505150352 | 25 | 62 | 3.2 | 9.7 | 0.00 | 0.00 | 0.00 | 42 | 1008.2 |
| 20260505140340 | 24 | 342 | 1.6 | 6.4 | 0.00 | 0.00 | 0.00 | 44 | 1008.4 |
| 20260505124817 | 22 | 339 | 1.6 | 1.6 | 0.00 | 0.00 | 0.00 | 51 | 1009.2 |
| 20260505115814 | 17 | 67 | 0.0 | 1.6 | 0.00 | 0.00 | 0.00 | 64 | 1009.0 |
| 20260505115311 | 17 | 67 | 0.0 | 1.6 | 0.00 | 0.00 | 0.00 | 64 | 1009.0 |
| 20260505114809 | 17 | 67 | 0.0 | 1.6 | 0.00 | 0.00 | 0.00 | 64 | 1009.0 |
| 20260505111311 | 13 | 182 | 0.0 | 1.6 | 0.00 | 0.00 | 0.00 | 74 | 1008.8 |
| 20260505110807 | 13 | 182 | 0.0 | 1.6 | 0.00 | 0.00 | 0.00 | 74 | 1008.8 |
| 20260505110305 | 13 | 182 | 0.0 | 1.6 | 0.00 | 0.00 | 0.00 | 74 | 1008.8 |
| 20260505101258 | 11 | 16 | 0.0 | 1.6 | 0.00 | 0.00 | 0.00 | 82 | 1008.0 |
| 20260505100754 | 11 | 16 | 0.0 | 1.6 | 0.00 | 0.00 | 0.00 | 82 | 1008.0 |
| 20260505100251 | 11 | 16 | 0.0 | 1.6 | 0.00 | 0.00 | 0.00 | 82 | 1008.0 |
| 20260505095747 | 11 | 0 | 0.0 | 1.6 | 0.00 | 0.00 | 0.00 | 82 | 1008.3 |
| 20260505095245 | 11 | 0 | 0.0 | 1.6 | 0.00 | 0.00 | 0.00 | 82 | 1008.3 |
| 20260505091239 | 11 | 14 | 1.6 | 1.6 | 0.00 | 0.00 | 0.00 | 77 | 1007.9 |
| 20260505090736 | 11 | 14 | 1.6 | 1.6 | 0.00 | 0.00 | 0.00 | 77 | 1007.9 |
| 20260505090234 | 11 | 14 | 1.6 | 1.6 | 0.00 | 0.00 | 0.00 | 77 | 1007.9 |
| 20260505085731 | 12 | 40 | 0.0 | 1.6 | 0.00 | 0.00 | 0.00 | 76 | 1007.7 |
| 20260505085229 | 12 | 40 | 0.0 | 1.6 | 0.00 | 0.00 | 0.00 | 76 | 1007.7 |